EST,Max TemperatureF,Mean TemperatureF,Min TemperatureF,Max Dew PointF,MeanDew PointF,Min DewpointF,Max Humidity, Mean Humidity, Min Humidity, Max Sea Level PressureIn, Mean Sea Level PressureIn, Min Sea Level PressureIn, Max VisibilityMiles, Mean VisibilityMiles, Min VisibilityMiles, Max Wind SpeedMPH, Mean Wind SpeedMPH, Max Gust SpeedMPH,PrecipitationIn, CloudCover, Events, WindDirDegrees
2011-12-1,53,50,46,41,37,32,82,67,52,30.35,30.23,30.06,10,10,10,14,7,22,0.00,3,,11
2011-12-2,58,48,38,44,39,33,96,72,47,30.46,30.39,30.34,10,10,10,7,3,14,0.00,0,,360
2011-12-3,59,50,40,48,44,40,100,77,53,30.57,30.52,30.45,10,10,10,14,6,21,0.00,0,,39
2011-12-4,71,62,53,56,52,49,93,73,53,30.50,30.43,30.38,10,10,9,10,6,17,T,6,,52
2011-12-5,72,66,59,61,57,53,100,79,57,30.36,30.29,30.24,10,9,2,21,6,26,0.06,7,Rain,77
2011-12-6,68,62,55,63,58,54,100,89,78,30.23,30.16,30.05,10,8,2,10,4,15,0.01,3,Rain,157
2011-12-7,69,63,56,64,61,49,100,91,81,30.03,29.80,29.62,10,7,1,29,11,45,0.22,4,Rain,226
2011-12-8,56,51,46,48,38,33,83,67,50,30.36,30.16,29.81,10,10,10,24,9,38,T,2,,6
2011-12-9,68,57,46,58,51,41,90,73,56,30.32,30.25,30.18,10,9,4,18,6,23,0.09,4,Rain,72
2011-12-10,59,54,48,56,46,35,100,80,59,30.44,30.24,30.14,10,7,2,16,10,29,0.45,5,Rain,10
2011-12-11,53,50,46,45,37,32,77,66,54,30.56,30.50,30.43,10,10,10,16,11,26,0.00,0,,37
2011-12-12,58,55,51,52,50,46,93,85,77,30.47,30.42,30.37,10,10,9,15,10,23,0.00,1,,31
2011-12-13,54,52,49,52,46,37,100,80,59,30.41,30.37,30.33,10,8,0,13,7,23,0.00,4,Fog,12
2011-12-14,57,52,47,48,44,38,89,78,66,30.40,30.36,30.34,10,10,10,12,6,18,0.00,2,,13
2011-12-15,62,54,45,57,52,45,93,81,69,30.33,30.23,30.12,10,10,8,13,6,20,0.00,0,,214
2011-12-16,67,61,54,56,52,46,93,80,67,30.16,30.13,30.09,10,10,8,14,9,22,0.00,3,,281
2011-12-17,54,49,43,47,40,27,86,70,53,30.21,30.14,30.07,10,10,6,15,8,23,T,7,,22
2011-12-18,48,45,41,29,27,25,57,50,42,30.39,30.27,30.18,10,10,10,13,7,23,0.00,1,,352
2011-12-19,56,43,30,48,36,26,85,66,46,30.40,30.32,30.23,10,10,8,13,5,17,0.00,0,,246
2011-12-20,66,59,52,55,51,47,89,78,67,30.25,30.21,30.17,10,10,5,13,7,21,0.00,1,,259
2011-12-21,67,63,58,61,58,55,90,84,78,30.19,30.13,30.05,10,8,5,20,10,31,0.01,5,Rain,221
2011-12-22,69,67,64,63,62,60,93,86,78,30.18,30.10,30.04,10,8,2,16,8,22,T,5,,225
2011-12-23,67,61,54,65,56,47,93,80,67,30.20,30.07,29.93,10,8,1,24,11,32,0.12,6,Rain,309
2011-12-24,54,51,48,47,41,37,83,69,54,30.44,30.34,30.20,10,10,10,13,8,22,0.00,0,,24
2011-12-25,58,51,43,47,41,36,77,62,47,30.40,30.28,30.11,10,10,10,17,4,28,0.00,2,,347
2011-12-26,55,50,45,46,36,31,77,62,46,30.35,30.25,30.09,10,10,10,17,9,28,0.00,0,,360
2011-12-27,67,56,45,63,55,39,87,75,63,30.26,29.80,29.61,10,5,0,31,16,48,2.20,6,Fog-Rain,221
2011-12-28,58,53,48,46,36,32,77,62,46,30.05,29.87,29.65,10,10,10,24,14,36,0.00,1,,288
2011-12-29,58,48,38,46,34,27,77,58,38,30.15,30.08,30.03,10,10,10,13,5,18,0.00,0,,261
2011-12-30,62,55,47,55,45,40,89,69,49,30.18,30.10,30.05,10,10,10,13,7,18,0.00,0,,254
2011-12-31,64,56,47,56,51,44,86,73,60,30.15,30.02,29.95,10,10,9,15,7,23,0.00,2,,264